ONEWEB-0144, 47290

Orbit data source: Space-Track

ONEWEB-0144, 47290 is a payload satellite owned by One Web (UK) in LEO that was launched on Fri, 18 Dec 2020 UTC via a SOYUZ-2-1B launch vehicle from the Vostochny Cosmodrome (VOSTO). Payload-class satellites include a variety of spacecraft equipped with specific instruments for various scientific and technological missions. These include communications satellites like Starlink; space stations such as the ISS; scientific satellites like the Hubble; Earth observation satellites from companies like Planet Labs, Umbra, and HawkEye 360; GPS; miniature CubeSats for education and research; and military/defense satellites.

Loading next visibility...
Identifier
47290, 2020-100AJ
Orbit
LEO
Country
Flag of UKUK
Related business
Manufacturer
One Web
Mission
Operational Commercial Communications
Bus & Motor
ARROW, Unknown motor
Mass
148 kg wet, ~140 kg dry
Launch date (UTC)
2020-12-18 (5 years ago)
Launch vehicle
SOYUZ-2-1B
Launch site
Vostochny Cosmodrome (VOSTO)
Object type
Payload
Rocket body
Debris
Shape & HBR
Trap Box + 2 Pan, 6.7 m
Radar Cross Section
3.464 m², Large (>1 m²)

Expand to show TLE details & history
Last TLE update: 7 hours ago

TLE from 7 hours ago
0 ONEWEB-0144
1 47290U 20100AJ  26095.48333173  .00000033  00000-0  55411-4 0  9995
2 47290  87.9021   5.0753 0001939  69.3275 290.8062 13.12444964255035
Epoch: 2026-04-05T11:35Z
TLE epoch observation values (Epoch: 2026-04-05T11:35:59.861Z)
Latitude
0.00005°
Longitude
-2.71223°
Altitude
1,216.084 km
Speed
7.246 km/s
True Right ascension
00h 20m 18s
True Declination
0° 00' 00"
Sunlit
Object was in daylight at epoch
Visualization orbit readout
Latitude
Unknown
Longitude
Unknown
Altitude
Unknown
Speed
Unknown
Apparent Right ascension
Unknown
Apparent Declination
Unknown
Sunlit
N/A
Visualization observer readout
Local Sidereal Time
00:48:27
Azimuth
Unknown
Elevation
Unknown
Doppler factor
Unknown
Orbital elements
Apogee altitude
1,212.304 km
Perigee altitude
1,209.361 km
Semi-major axis
7,588.969 km
Eccentricity
0.00019
Inclination
87.9021°
RAAN
5.0753°
Arg. of periapsis
69.3275°
True anomaly
290.78543°
Mean anomaly
290.8062°
Eccentric anomaly
290.79581°
Mean motion
3.28299 °/min
Orbital period
109.66 mins
BSTAR
0.000055411
Loading maneuver chart data...
Computing Atmospheric mass density...
Loading historical data...
Loading historical data...
Loading historical data...
Loading historical data...
Loading historical data...
Loading historical data...
Loading historical data...

Documentation

Showing up to 5 results
|